EO 1

Satellite information

Favourite Embed

Satellite Type and Status

PAYLOADIN ORBIT

Key statistics

Satellite EO 1 at a glance.

Uptime

9154

Days in orbit

Revolutions

≈ 14.7

Per day

Orbit

SSO

Sun Synchronous Orbit

Inclination

98.1

Latest

Satellite identification and parameters

Extended collection of information and parameters for EO 1.

Object identification

Identified? True

Debris? False

Object name: EO 1

International designator: 2000-075A

Object number (NORAD): 26619

Object ID (CCSDS): 26619

Country: UNITED STATES OF AMERICA (US)

Current information (Y/N): Y

RCS size: LARGE

Orbital parameters

Period: 98.037 minutes

Inclination: 98.0929 deg

SMA: 7042.938 km

Apoapsis: 671.349 km

Periapsis: 658.256 km

RAAN: 299.6626 deg

Eccentricy: 0.00092957

Argument of periapsis: 9.2961 deg

Mean anomaly: 350.8414 deg

Mean motion: 14.68831597 rev/day

Mean motion (dot): 0.00001544 rev/day2

B* drag term: 0.00027272165 1/REarth

Two-line elements (TLE)

Creation date: Dec. 12, 2025, 10:14 a.m.

Reference frame: TEME

Reference center: EARTH

Epoch: Dec. 12, 2025, 7:09 a.m. UTC

TLE line 0: 0 EO 1

TLE line 1: 1 26619U 00075A 25346.29828597 .00001544 00000-0 27272-3 0 9993

TLE line 2: 2 26619 98.0929 299.6626 0009296 9.2961 350.8414 14.68831597619155

Live tracking on map

Real-time ground track for satellite EO 1.

In-orbit conjunctions

There are no conjunctions computed for EO 1, at the moment. Check back to stay up to date, as we update our databases every day.

Go to all conjunctions

Associated space launch

EO 1 and SAS C are American and Argentinian Earth-imaging satellites.

EO 1 was lifted into orbit during the mission ‘Delta II | EO 1 & SAC C’, on board a Delta II space rocket.

The launch took place on Nov. 21, 2000, 6:24 p.m. from Space Launch Complex 2W.

For more information about the launch, click the button.

Launch to space Delta II | EO 1 & SAC C
Delta II | EO 1 & SAC C

Agency: N/A

Status: Launch Successful

Launch date: Nov. 21, 2000, 6:24 p.m. UTC

Rocket: Delta II

Launch pad: Space Launch Complex 2W

Location: Vandenberg SFB, CA, USA

...

Latest news about this satellite

There are no fresh news available about this satellite. Check back as we update our databases every day.


Newsletter sign-up

Weekly statistics, charts and insights to help you stay on top of the space industry.